Regional Weather Roundup
Issued by NWS Sioux Falls, SD

Home | Current Version | Previous Version | Text Only | Print | Product List | Glossary On
Versions: 1 2 3 4 5 6 7 8 9 10 11 12 13 14 15 16 17 18 19 20 21 22 23 24 25 26 27 28 29 30 31 32 33 34 35 36 37 38 39 40 41 42 43 44 45 46 47 48 49 50
000
ASUS43 KFSD 230402
RWRFSD

WEATHER ROUNDUP FOR SE SOUTH DAKOTA/SW MINNESOTA/NW IOWA
NATIONAL WEATHER SERVICE SIOUX FALLS SD
1100 PM CDT MON SEP 22 2014

NOTE: "FAIR" INDICATES FEW OR NO CLOUDS BELOW 12,000 FEET WITH NO
SIGNIFICANT WEATHER AND OR OBSTRUCTIONS TO VISIBILITY.


SDZ038>040-050-052>070-230500-
SOUTHEAST SOUTH DAKOTA

CITY           SKY/WX    TMP DP  RH WIND       PRES   REMARKS
CHAMBERLAIN    CLOUDY    65  52  62 S13       30.05S
HURON          PTCLDY    64  49  57 S10       30.07S
MADISON        FAIR      57  50  77 S8        30.15R
MITCHELL       CLOUDY    65  52  62 SE12      30.09S
SIOUX FALLS    MOCLDY    61  49  64 S9        30.15S
WINNER         FAIR      64  54  69 S21G26    30.03F
YANKTON        MOCLDY    63  48  59 SE9       30.14S
$$

MNZ071-072-080-081-089-090-097-098-230500-
SOUTHWEST MINNESOTA

CITY           SKY/WX    TMP DP  RH WIND       PRES   REMARKS
FAIRMONT       CLEAR     52  43  71 S6        30.18F
JACKSON        CLEAR     54  46  76 S5        30.19S
LUVERNE        PTCLDY    54  48  82 S6        30.17S
MARSHALL       CLEAR     55  46  71 S8        30.13S
MONTEVIDEO     CLEAR     57  48  72 SW5       30.14R
PIPESTONE      PTCLDY    57  48  72 S8        30.16S
REDWOOD FALLS  CLEAR     55  49  80 S8        30.15R
TRACY          CLEAR     58  49  73 S8        30.15S
WINDOM         CLEAR     55  46  71 CALM      30.17F
WORTHINGTON    CLEAR     55  48  76 S8        30.18F
$$

IAZ001>003-012>014-020>022-031-032-NEZ013-014-SDZ071-230500-
NORTHWEST IOWA

CITY           SKY/WX    TMP DP  RH WIND       PRES   REMARKS
CHEROKEE       MOCLDY    55  52  90 CALM      30.19S
DENISON        MOCLDY    57  52  82 SE6       30.19R
ESTHERVILLE    PTCLDY    51  47  86 S7        30.19S
LE MARS        MOCLDY    57  52  82 CALM      30.18S
ORANGE CITY    MOCLDY    61  52  72 S5        30.18S
SHELDON        PTCLDY    55  50  82 S6        30.17S
SIOUX CITY     MOCLDY    56  51  84 SE7       30.17S
SPENCER        FAIR      52  48  86 S6        30.19S
$$

ABBREVIATIONS USED IN REMARKS
   TC - TEMPERATURE IN CELSIUS
  WCI - WIND CHILL INDEX
   HX - HEAT INDEX
  VSB - VISIBILITY



USA.gov is the U.S. government's official web portal to all federal, state and local government web resources and services.